This is the latest recevied weather packets stored in our database for station/object K3HW. If no packets are shown the sender has not sent any weather packets the latest 10 day(s).
| Time | Temp. | Humidity | Pressure | Rain* | Wind** | Luminosity | Snow |
|---|---|---|---|---|---|---|---|
| 1777661765 | 17.78° C | 41% | 1015.6 hPa | 0 mm | - | 102 W/m² | - |
| 1777661461 | 17.22° C | 47% | 1015.9 hPa | 0 mm | - | 169 W/m² | - |
| 1777661157 | 16.67° C | 44% | 1015.6 hPa | 0 mm | - | 178 W/m² | - |
| 1777660852 | 17.22° C | 44% | 1015.8 hPa | 0 mm | - | 95 W/m² | - |
| 1777660549 | 16.67° C | 46% | 1015.8 hPa | 0 mm | - | 246 W/m² | - |
| 1777660245 | 16.67° C | 42% | 1015.9 hPa | 0 mm | - | 110 W/m² | - |
| 1777659942 | 16.67° C | 46% | 1015.9 hPa | 0 mm | - | 155 W/m² | - |
| 1777659639 | 16.67° C | 43% | 1015.9 hPa | 0 mm | - | 87 W/m² | - |
| 1777659337 | 16.67° C | 42% | 1016 hPa | 0 mm | - | 57 W/m² | - |
| 1777659033 | 16.11° C | 49% | 1016 hPa | 0 mm | - | 334 W/m² | - |
| 1777658731 | 16.11° C | 45% | 1016 hPa | 0 mm | - | 61 W/m² | - |
| 1777658427 | 16.11° C | 48% | 1015.7 hPa | 0 mm | - | 54 W/m² | - |
| 1777658124 | 16.11° C | 46% | 1016 hPa | 0 mm | - | 69 W/m² | - |
| 1777657820 | 16.11° C | 46% | 1016.1 hPa | 0 mm | - | 72 W/m² | - |
| 1777657518 | 16.11° C | 47% | 1015.8 hPa | 0 mm | - | 62 W/m² | - |
| 1777657215 | 15.56° C | 44% | 1015.9 hPa | 0 mm | - | 55 W/m² | - |
| 1777656912 | 16.11° C | 44% | 1016.1 hPa | 0 mm | - | 186 W/m² | - |
| 1777656609 | 16.11° C | 46% | 1016.2 hPa | 0 mm | - | 174 W/m² | - |
| 1777656304 | 16.11° C | 46% | 1016 hPa | 0 mm | - | 82 W/m² | - |
| 1777656000 | 15.56° C | 46% | 1016 hPa | 0 mm | - | 85 W/m² | - |
| 1777655696 | 15.56° C | 48% | 1016.2 hPa | 0 mm | - | 641 W/m² | - |
| 1777655393 | 15° C | 47% | 1016.2 hPa | 0 mm | - | 129 W/m² | - |
| 1777655090 | 16.11° C | 41% | 1016.2 hPa | 0 mm | - | 653 W/m² | - |
| 1777654787 | 16.67° C | 46% | 1016.4 hPa | 0 mm | - | 84 W/m² | - |
| 1777654485 | 16.67° C | 46% | 1016.3 hPa | 0 mm | - | 71 W/m² | - |
* Rain latest hour (hover to see other rain measurements)
** Current wind speed in m/s (hover to see current wind gust speed)